Location: Autingues
(50.8400°N, 1.9737°E)
Time: 21:57:36
(UTC+00:00)

Cosmos 1777 Rocket - Pass Details

Date: 15 May 2026
Orbit: 754 x 771 km, 74.0° (Epoch: 10 June)

Event Time Altitude Azimuth Distance (km) Brightness Sun altitude
Rises 21:32:16 0° 333° (NNW) 3,243 9.2 -14.0°
Reaches altitude 10° 21:34:40 10° 330° (NNW) 2,310 7.9 -14.2°
Maximum altitude 21:39:50 63° 251° (WSW) 851 4.3 -14.6°
Enters shadow 21:43:22 20° 175° (S) 1,699 5.3 -14.9°
